OK,93,42,992,93,2014-10-01T01:40:00,0,28072762,190853
OK,93,42,992,93,2014-10-01T01:45:00,0,28073209,190853
OK,93,42,992,93,2014-10-01T01:50:00,0,28073657,190853
OK,93,42,992,93,2014-10-01T01:55:00,0,28073975,190853
OK,93,42,992,93,2014-10-01T02:05:00,0,28074864,190853
OK,93,42,992,93,2014-10-01T02:10:00,0,28075313,190853
OK,93,42,992,93,2014-10-01T02:15:00,0,28075762,190853
OK,93,42,992,93,2014-10-01T02:20:00,0,28076145,190853
OK,93,42,992,93,2014-10-01T02:25:00,0,28076594,190853
OK,93,42,992,93,2014-10-01T02:30:00,0,28077043,190853
OK,93,42,992,93,2014-10-01T02:35:00,0,28077492,190853
OK,93,42,992,93,2014-10-01T02:40:00,0,28077895,190853
OK,93,42,992,93,2014-10-01T02:45:00,0,28078344,190853
OK,93,42,992,93,2014-10-01T02:50:00,0,28078789,190853
OK,93,42,992,93,2014-10-01T02:55:00,0,28079238,190853
OK,93,42,992,93,2014-10-01T03:00:00,0,28079680,190853
OK,93,42,992,93,2014-10-01T03:05:00,0,28080129,190853
OK,93,42,992,93,2014-10-01T03:10:00,0,28080463,190853
OK,93,42,992,93,2014-10-01T03:15:00,0,28080912,190853
OK,93,42,992,93,2014-10-01T03:20:00,0,28081361,190853
OK,93,42,992,93,2014-10-01T03:25:00,0,28081808,190853
OK,93,42,992,93,2014-10-01T03:30:00,0,28082257,190853
OK,93,42,992,93,2014-10-01T03:35:00,0,28082690,190853
OK,93,42,992,93,2014-10-01T03:40:00,0,28083122,190853
OK,93,42,992,93,2014-10-01T03:45:00,0,28083571,190853
OK,93,42,992,93,2014-10-01T03:50:00,0,28084020,190853
OK,93,42,992,93,2014-10-01T03:55:00,0,28084461,190853
OK,63,63,992,63,2014-10-01T04:00:00,1,28084886,190853
OK,66,60,992,66,2014-10-01T04:05:00,1,28085335,190853
OK,84,47,992,84,2014-10-01T04:10:00,1,28085780,190853
OK,89,44,992,89,2014-10-01T04:15:00,3,28086229,190853
OK,89,44,992,89,2014-10-01T04:20:00,3,28086671,190853
OK,72,55,992,72,2014-10-01T04:25:00,1,28087120,190853
OK,72,55,992,72,2014-10-01T04:30:00,0,28087565,190853
OK,73,54,992,73,2014-10-01T04:35:00,2,28088014,190853
OK,75,53,992,75,2014-10-01T04:40:00,3,28088438,190853
OK,77,51,992,77,2014-10-01T04:45:00,1,28088887,190853
OK,77,51,992,77,2014-10-01T04:50:00,3,28089317,190853
OK,74,53,992,74,2014-10-01T04:55:00,2,28089766,190853
OK,84,47,992,84,2014-10-01T05:00:00,2,28090215,190853
OK,83,48,992,83,2014-10-01T05:05:00,3,28090559,190853
OK,83,48,992,83,2014-10-01T05:10:00,3,28091008,190853
OK,90,44,992,90,2014-10-01T05:15:00,3,28091457,190853
OK,87,45,992,87,2014-10-01T05:20:00,7,28091874,190853
OK,82,48,992,82,2014-10-01T05:25:00,6,28092323,190853
OK,86,46,992,86,2014-10-01T05:30:00,5,28092767,190853
OK,85,46,992,85,2014-10-01T05:35:00,11,28093208,190853
OK,81,49,992,81,2014-10-01T05:40:00,10,28093639,190853
OK,85,46,992,85,2014-10-01T05:45:00,8,28094088,190853
OK,91,43,992,91,2014-10-01T05:50:00,10,28094499,190853
OK,88,45,992,88,2014-10-01T05:55:00,14,28094944,190853
OK,83,48,992,83,2014-10-01T06:00:00,15,28095391,190853
OK,83,48,992,83,2014-10-01T06:05:00,16,28095840,190853
OK,86,46,992,86,2014-10-01T06:10:00,9,28096253,190853
OK,86,46,992,86,2014-10-01T06:15:00,4,28096702,190853
OK,82,48,992,82,2014-10-01T06:20:00,4,28097136,190853
OK,77,51,992,77,2014-10-01T06:25:00,5,28097585,190853
OK,86,46,992,86,2014-10-01T06:30:00,4,28098034,190853
OK,89,44,992,89,2014-10-01T06:35:00,3,28098471,190853
OK,78,51,992,78,2014-10-01T06:40:00,1,28098915,190853
OK,82,48,992,82,2014-10-01T06:45:00,6,28099363,190853
OK,89,44,992,89,2014-10-01T06:50:00,7,28099706,190853
OK,82,48,992,82,2014-10-01T06:55:00,8,28100155,190853
OK,83,48,992,83,2014-10-01T07:00:00,9,28100462,190853
OK,84,47,992,84,2014-10-01T07:10:00,6,28101282,190853
OK,84,47,992,84,2014-10-01T07:15:00,4,28101731,190853
OK,87,45,992,87,2014-10-01T07:20:00,3,28102167,190853
OK,79,50,992,79,2014-10-01T07:25:00,2,28102616,190853
OK,83,48,992,83,2014-10-01T07:30:00,1,28103044,190853
OK,88,45,992,88,2014-10-01T07:35:00,1,28103490,190853
OK,88,45,992,88,2014-10-01T07:40:00,3,28103935,190853
OK,79,50,992,79,2014-10-01T07:45:00,4,28104380,190853
OK,75,53,992,75,2014-10-01T07:50:00,2,28104821,190853
OK,80,49,992,80,2014-10-01T07:55:00,3,28105266,190853
OK,85,46,992,85,2014-10-01T08:00:00,7,28105706,190853
OK,87,45,992,87,2014-10-01T08:05:00,6,28106155,190853
OK,90,44,992,90,2014-10-01T08:10:00,5,28106592,190853
OK,79,50,992,79,2014-10-01T08:15:00,1,28106998,190853
OK,79,50,992,79,2014-10-01T08:20:00,1,28107430,190853
OK,85,46,992,85,2014-10-01T08:25:00,6,28107879,190853
OK,85,46,992,85,2014-10-01T08:30:00,8,28108318,190853
OK,80,49,992,80,2014-10-01T08:35:00,2,28108767,190853
OK,70,56,992,70,2014-10-01T08:40:00,1,28109195,190853
OK,80,49,992,80,2014-10-01T08:45:00,2,28109644,190853
OK,78,51,992,78,2014-10-01T08:50:00,3,28109987,190853
OK,76,52,992,76,2014-10-01T08:55:00,1,28110436,190853
OK,79,50,992,79,2014-10-01T09:00:00,4,28110859,190853
OK,74,53,992,74,2014-10-01T09:05:00,5,28111308,190853
OK,73,54,992,73,2014-10-01T09:10:00,3,28111737,190853
OK,77,51,992,77,2014-10-01T09:15:00,2,28112186,190853
OK,77,51,992,77,2014-10-01T09:20:00,2,28112527,190853
OK,82,48,992,82,2014-10-01T09:25:00,2,28112976,190853
OK,82,48,992,82,2014-10-01T09:30:00,0,28113400,190853
OK,76,52,992,76,2014-10-01T09:35:00,3,28113849,190853
OK,74,53,992,74,2014-10-01T09:40:00,4,28114281,190853
OK,74,53,992,74,2014-10-01T09:45:00,2,28114730,190853
OK,74,53,992,74,2014-10-01T09:50:00,0,28115084,190853
OK,72,55,992,72,2014-10-01T10:00:00,4,28115945,190853
OK,71,56,992,71,2014-10-01T10:05:00,3,28116394,190853
OK,75,53,992,75,2014-10-01T10:10:00,1,28116802,190853
OK,76,52,992,76,2014-10-01T10:15:00,1,28117251,190853
OK,68,58,992,68,2014-10-01T10:20:00,4,28117676,190853
OK,67,59,992,67,2014-10-01T10:25:00,3,28118125,190853
OK,73,54,992,73,2014-10-01T10:30:00,6,28118570,190853
OK,91,43,992,91,2014-10-01T10:35:00,5,28119017,190853
OK,74,53,992,74,2014-10-01T10:40:00,3,28119461,190853
OK,74,53,992,74,2014-10-01T10:45:00,2,28119909,190853
OK,80,49,992,80,2014-10-01T10:50:00,2,28120357,190853
OK,84,47,992,84,2014-10-01T10:55:00,3,28120806,190853
OK,86,46,992,86,2014-10-01T11:00:00,3,28121189,190853
OK,77,51,992,77,2014-10-01T11:05:00,3,28121638,190853
OK,72,55,992,72,2014-10-01T11:10:00,7,28122076,190853
OK,72,55,992,72,2014-10-01T11:15:00,5,28122525,190853
OK,83,48,992,83,2014-10-01T11:20:00,3,28122966,190853
OK,88,45,992,88,2014-10-01T11:25:00,3,28123415,190853
OK,75,53,992,75,2014-10-01T11:30:00,3,28123847,190853
OK,72,55,992,72,2014-10-01T11:35:00,3,28124296,190853
OK,82,48,992,82,2014-10-01T11:40:00,2,28124698,190853
OK,84,47,992,84,2014-10-01T11:45:00,2,28125147,190853
OK,84,47,992,84,2014-10-01T11:50:00,4,28125576,190853
OK,84,47,992,84,2014-10-01T11:55:00,5,28126025,190853
OK,73,54,992,73,2014-10-01T12:00:00,3,28126377,190853
OK,69,57,992,69,2014-10-01T12:10:00,5,28127275,190853
OK,76,52,992,76,2014-10-01T12:15:00,2,28127724,190853
OK,84,47,992,84,2014-10-01T12:20:00,3,28128152,190853
OK,77,51,992,77,2014-10-01T12:25:00,6,28128601,190853
OK,78,51,992,78,2014-10-01T12:30:00,7,28129036,190853
OK,81,49,992,81,2014-10-01T12:35:00,3,28129485,190853
OK,76,52,992,76,2014-10-01T12:40:00,1,28129919,190853
OK,73,54,992,73,2014-10-01T12:45:00,1,28130368,190853
OK,73,54,992,73,2014-10-01T12:50:00,4,28130796,190853
OK,71,56,992,71,2014-10-01T12:55:00,2,28131245,190853
OK,73,54,992,73,2014-10-01T13:00:00,3,28131682,190853
OK,74,53,992,74,2014-10-01T13:05:00,4,28132131,190853
OK,79,50,992,79,2014-10-01T13:10:00,6,28132569,190853
OK,79,50,992,79,2014-10-01T13:15:00,4,28133016,190853
OK,93,42,992,93,2014-10-01T13:20:00,3,28133454,190853
OK,97,41,992,97,2014-10-01T13:25:00,4,28133903,190853
OK,85,46,992,85,2014-10-01T13:30:00,3,28134342,190853
OK,74,53,992,74,2014-10-01T13:35:00,4,28134791,190853
OK,72,55,992,72,2014-10-01T13:40:00,7,28135210,190853
OK,77,51,992,77,2014-10-01T13:45:00,5,28135659,190853
OK,88,45,992,88,2014-10-01T13:50:00,7,28136096,190853
OK,88,45,992,88,2014-10-01T13:55:00,6,28136545,190853
OK,76,52,992,76,2014-10-01T14:00:00,4,28136985,190853
OK,80,49,992,80,2014-10-01T14:05:00,3,28137434,190853
OK,77,51,992,77,2014-10-01T14:10:00,4,28137868,190853
OK,80,49,992,80,2014-10-01T14:15:00,3,28138317,190853
OK,87,45,992,87,2014-10-01T14:20:00,8,28138745,190853
OK,84,47,992,84,2014-10-01T14:25:00,8,28139194,190853
OK,83,48,992,83,2014-10-01T14:30:00,5,28139605,190853
OK,73,54,992,73,2014-10-01T14:35:00,5,28140054,190853
OK,76,52,992,76,2014-10-01T14:40:00,6,28140496,190853
OK,79,50,992,79,2014-10-01T14:45:00,6,28140945,190853
OK,76,52,992,76,2014-10-01T14:50:00,4,28141371,190853
OK,75,53,992,75,2014-10-01T14:55:00,7,28141820,190853
OK,75,53,992,75,2014-10-01T15:00:00,8,28142248,190853
OK,76,52,992,76,2014-10-01T15:05:00,6,28142697,190853
OK,76,52,992,76,2014-10-01T15:10:00,5,28143124,190853
OK,84,47,992,84,2014-10-01T15:15:00,3,28143573,190853
OK,78,51,992,78,2014-10-01T15:20:00,5,28144021,190853
OK,75,53,992,75,2014-10-01T15:25:00,6,28144470,190853
OK,70,56,992,70,2014-10-01T15:30:00,2,28144891,190853
OK,76,52,992,76,2014-10-01T15:35:00,3,28145305,190853
OK,77,51,992,77,2014-10-01T15:40:00,6,28145754,190853
OK,78,51,992,78,2014-10-01T15:45:00,5,28146203,190853
OK,79,50,992,79,2014-10-01T15:50:00,2,28146652,190853
OK,83,48,992,83,2014-10-01T15:55:00,1,28147060,190853
OK,77,51,992,77,2014-10-01T16:00:00,1,28147504,190853
OK,71,56,992,71,2014-10-01T16:05:00,3,28147953,190853
OK,74,53,992,74,2014-10-01T16:10:00,7,28148354,190853
OK,76,52,992,76,2014-10-01T16:20:00,7,28149242,190853
OK,79,50,992,79,2014-10-01T16:25:00,2,28149691,190853
OK,69,57,992,69,2014-10-01T16:30:00,3,28150117,190853
OK,72,55,992,72,2014-10-01T16:35:00,5,28150566,190853
OK,85,46,992,85,2014-10-01T16:40:00,3,28150984,190853
OK,77,51,992,77,2014-10-01T16:45:00,1,28151433,190853
OK,77,51,992,77,2014-10-01T16:50:00,1,28151882,190853
OK,77,51,992,77,2014-10-01T17:00:00,0,28152331,190853
OK,71,56,992,71,2014-10-01T17:05:00,3,28152777,190853
OK,98,40,992,98,2014-10-01T17:10:00,1,28153224,190853
OK,98,40,992,98,2014-10-01T17:15:00,0,28153673,190853
OK,82,48,992,82,2014-10-01T17:20:00,4,28154083,190853
OK,79,50,992,79,2014-10-01T17:25:00,3,28154532,190853
OK,68,58,992,68,2014-10-01T17:30:00,1,28154974,190853
OK,68,58,992,68,2014-10-01T17:35:00,0,28155422,190853
OK,68,58,992,68,2014-10-01T17:40:00,0,28155840,190853
OK,68,58,992,68,2014-10-01T17:45:00,0,28156289,190853
OK,81,49,992,81,2014-10-01T17:50:00,3,28156737,190853
OK,82,48,992,82,2014-10-01T17:55:00,4,28157176,190853
OK,137,29,992,137,2014-10-01T18:00:00,2,28157606,190853
OK,72,55,992,72,2014-10-01T18:05:00,1,28158054,190853
OK,60,66,992,60,2014-10-01T18:10:00,2,28158498,190853
OK,76,52,992,76,2014-10-01T18:15:00,1,28158944,190853
OK,76,52,992,76,2014-10-01T18:20:00,0,28159390,190853
OK,76,52,992,76,2014-10-01T18:25:00,0,28159725,190853
OK,76,52,992,76,2014-10-01T18:30:00,0,28160174,190853
OK,76,52,992,76,2014-10-01T18:35:00,0,28160623,190853
OK,93,42,992,93,2014-10-01T18:40:00,1,28161061,190853
OK,83,48,992,83,2014-10-01T18:45:00,2,28161510,190853
OK,73,54,992,73,2014-10-01T18:50:00,1,28161927,190853
OK,73,54,992,73,2014-10-01T18:55:00,0,28162376,190853
OK,73,54,992,73,2014-10-01T19:00:00,0,28162770,190853
OK,73,54,992,73,2014-10-01T19:05:00,0,28163209,190853
OK,73,54,992,73,2014-10-01T19:10:00,0,28163657,190853
OK,73,54,992,73,2014-10-01T19:15:00,0,28164106,190853
OK,83,48,992,83,2014-10-01T19:20:00,1,28164537,190853
OK,87,45,992,87,2014-10-01T19:25:00,1,28164986,190853
OK,87,45,992,87,2014-10-01T19:30:00,0,28165411,190853
OK,67,59,992,67,2014-10-01T19:35:00,1,28165859,190853
OK,71,56,992,71,2014-10-01T19:40:00,2,28166300,190853
OK,79,50,992,79,2014-10-01T19:45:00,1,28166662,190853
OK,79,50,992,79,2014-10-01T19:50:00,1,28167111,190853
OK,79,50,992,79,2014-10-01T19:55:00,0,28167540,190853
OK,79,50,992,79,2014-10-01T20:00:00,0,28167973,190853
OK,79,50,992,79,2014-10-01T20:05:00,0,28168422,190853
OK,79,50,992,79,2014-10-01T20:10:00,0,28168867,190853
OK,79,50,992,79,2014-10-01T20:15:00,0,28169316,190853
OK,79,50,992,79,2014-10-01T20:20:00,0,28169764,190853
OK,96,41,992,96,2014-10-01T20:25:00,1,28170190,190853
OK,96,41,992,96,2014-10-01T20:30:00,1,28170635,190853
OK,96,41,992,96,2014-10-01T20:35:00,0,28171083,190853
OK,96,41,992,96,2014-10-01T20:40:00,0,28171520,190853
OK,96,41,992,96,2014-10-01T20:45:00,0,28171966,190853
OK,96,41,992,96,2014-10-01T20:50:00,0,28172414,190853
OK,74,53,992,74,2014-10-01T20:55:00,0,28172860,190853
OK,74,53,992,74,2014-10-01T21:00:00,0,28173306,190853
OK,74,53,992,74,2014-10-01T21:05:00,0,28173755,190853
OK,74,53,992,74,2014-10-01T21:10:00,0,28174196,190853
OK,74,53,992,74,2014-10-01T21:15:00,0,28174645,190853
OK,74,53,992,74,2014-10-01T21:20:00,0,28175071,190853
OK,82,48,992,82,2014-10-01T21:25:00,0,28175467,190853
OK,82,48,992,82,2014-10-01T21:30:00,0,28175916,190853
OK,82,48,992,82,2014-10-01T21:35:00,0,28176365,190853
OK,82,48,992,82,2014-10-01T21:40:00,0,28176814,190853
OK,82,48,992,82,2014-10-01T21:45:00,0,28177170,190853
OK,82,48,992,82,2014-10-01T21:50:00,0,28177610,190853
OK,82,48,992,82,2014-10-01T21:55:00,0,28178056,190853
OK,82,48,992,82,2014-10-01T22:00:00,0,28178505,190853
OK,82,48,992,82,2014-10-01T22:05:00,0,28178952,190853
OK,82,48,992,82,2014-10-01T22:10:00,0,28179386,190853
OK,82,48,992,82,2014-10-01T22:15:00,0,28179829,190853
OK,82,48,992,82,2014-10-01T22:20:00,0,28180276,190853
OK,82,48,992,82,2014-10-01T22:25:00,0,28180674,190853
OK,82,48,992,82,2014-10-01T22:30:00,0,28181123,190853
OK,82,48,992,82,2014-10-01T22:35:00,0,28181547,190853
OK,82,48,992,82,2014-10-01T22:40:00,0,28181995,190853
OK,55,72,992,55,2014-10-01T22:45:00,1,28182442,190853
OK,55,72,992,55,2014-10-01T22:50:00,0,28182891,190853
OK,55,72,992,55,2014-10-01T22:55:00,0,28183308,190853
OK,55,72,992,55,2014-10-01T23:00:00,0,28183741,190853
OK,55,72,992,55,2014-10-01T23:05:00,0,28184186,190853
OK,55,72,992,55,2014-10-01T23:10:00,0,28184635,190853
OK,55,72,992,55,2014-10-01T23:15:00,0,28185070,190853
OK,55,72,992,55,2014-10-01T23:20:00,0,28185518,190853
OK,55,72,992,55,2014-10-01T23:25:00,0,28185949,190853
OK,55,72,992,55,2014-10-01T23:30:00,0,28186341,190853
OK,55,72,992,55,2014-10-01T23:40:00,0,28187188,190853
OK,55,72,992,55,2014-10-01T23:55:00,0,28188520,190853
OK,55,72,992,55,2014-10-02T00:05:00,0,28189405,190853
OK,55,72,992,55,2014-10-02T00:10:00,0,28189827,190853
OK,55,72,992,55,2014-10-02T00:15:00,0,28190276,190853
OK,55,72,992,55,2014-10-02T00:20:00,0,28190629,190853
OK,55,72,992,55,2014-10-02T00:30:00,0,28191527,190853
OK,55,72,992,55,2014-10-02T00:35:00,0,28191833,190853
OK,55,72,992,55,2014-10-02T00:45:00,0,28192715,190853
OK,55,72,992,55,2014-10-02T00:50:00,0,28193159,190853
OK,55,72,992,55,2014-10-02T00:55:00,0,28193526,190853
OK,55,72,992,55,2014-10-02T01:05:00,0,28194424,190853
OK,55,72,992,55,2014-10-02T01:10:00,0,28194873,190853
OK,55,72,992,55,2014-10-02T01:15:00,0,28195109,190853
OK,55,72,992,55,2014-10-02T01:25:00,0,28196007,190853
OK,55,72,992,55,2014-10-02T01:30:00,0,28196291,190853
OK,55,72,992,55,2014-10-02T01:35:00,0,28196740,190853
OK,55,72,992,55,2014-10-02T01:40:00,0,28197163,190853
OK,55,72,992,55,2014-10-02T01:45:00,0,28197612,190853
OK,55,72,992,55,2014-10-02T01:50:00,0,28198060,190853
OK,55,72,992,55,2014-10-02T01:55:00,0,28198508,190853
OK,55,72,992,55,2014-10-02T02:00:00,0,28198957,190853
OK,55,72,992,55,2014-10-02T02:05:00,0,28199329,190853
OK,55,72,992,55,2014-10-02T02:10:00,0,28199771,190853
OK,55,72,992,55,2014-10-02T02:15:00,0,28200213,190853
OK,55,72,992,55,2014-10-02T02:20:00,0,28200656,190853
OK,55,72,992,55,2014-10-02T02:25:00,0,28201105,190853
OK,55,72,992,55,2014-10-02T02:30:00,0,28201536,190853
OK,55,72,992,55,2014-10-02T02:45:00,0,28202434,190853
OK,55,72,992,55,2014-10-02T02:50:00,0,28202876,190853
OK,55,72,992,55,2014-10-02T02:55:00,0,28203324,190853
OK,55,72,992,55,2014-10-02T03:00:00,0,28203759,190853
OK,55,72,992,55,2014-10-02T03:10:00,0,28204208,190853
OK,55,72,992,55,2014-10-02T03:25:00,0,28204657,190853
OK,55,72,992,55,2014-10-02T03:30:00,0,28205106,190853
OK,55,72,992,55,2014-10-02T03:35:00,0,28205534,190853
OK,55,72,992,55,2014-10-02T03:40:00,0,28205981,190853
OK,55,72,992,55,2014-10-02T03:45:00,0,28206364,190853
OK,55,72,992,55,2014-10-02T03:55:00,0,28207262,190853
OK,55,72,992,55,2014-10-02T04:00:00,0,28207681,190853
OK,55,72,992,55,2014-10-02T04:05:00,0,28208130,190853
OK,55,72,992,55,2014-10-02T04:10:00,0,28208557,190853
OK,55,72,992,55,2014-10-02T04:15:00,0,28209006,190853
OK,71,56,992,71,2014-10-02T04:20:00,1,28209444,190853
OK,71,56,992,71,2014-10-02T04:25:00,0,28209893,190853
OK,74,53,992,74,2014-10-02T04:30:00,1,28210316,190853
OK,74,53,992,74,2014-10-02T04:35:00,0,28210765,190853
OK,79,50,992,79,2014-10-02T04:40:00,1,28211190,190853
OK,79,50,992,79,2014-10-02T04:45:00,0,28211634,190853
OK,79,50,992,79,2014-10-02T04:50:00,0,28212012,190853
OK,84,47,992,84,2014-10-02T05:00:00,0,28212890,190853
OK,136,29,992,136,2014-10-02T05:05:00,1,28213339,190853
OK,136,29,992,136,2014-10-02T05:10:00,1,28213777,190853
OK,87,45,992,87,2014-10-02T05:15:00,2,28214226,190853
OK,93,42,992,93,2014-10-02T05:20:00,0,28214639,190853
OK,85,46,992,85,2014-10-02T05:25:00,4,28215088,190853
OK,89,44,992,89,2014-10-02T05:30:00,1,28215504,190853
OK,89,44,992,89,2014-10-02T05:35:00,0,28215953,190853
OK,76,52,992,76,2014-10-02T05:40:00,6,28216292,190853
OK,74,53,992,74,2014-10-02T05:45:00,2,28216732,190853
OK,74,53,992,74,2014-10-02T05:50:00,0,28217179,190853
OK,83,48,992,83,2014-10-02T05:55:00,18,28217628,190853
OK,83,48,992,83,2014-10-02T06:00:00,13,28218067,190853
OK,83,48,992,83,2014-10-02T06:05:00,12,28218516,190853
OK,90,44,992,90,2014-10-02T06:10:00,4,28218936,190853
OK,101,39,992,101,2014-10-02T06:15:00,6,28219385,190853
OK,86,46,992,86,2014-10-02T06:20:00,7,28219758,190853
OK,73,54,992,73,2014-10-02T06:30:00,6,28220641,190853
OK,74,53,992,74,2014-10-02T06:35:00,7,28221090,190853
OK,76,52,992,76,2014-10-02T06:40:00,7,28221471,190853
OK,76,52,992,76,2014-10-02T06:45:00,6,28221757,190853
OK,77,51,992,77,2014-10-02T07:00:00,3,28222351,190853
OK,71,56,992,71,2014-10-02T07:05:00,4,28222800,190853
OK,70,56,992,70,2014-10-02T07:10:00,4,28223231,190853
OK,65,61,992,65,2014-10-02T07:15:00,0,28223666,190853
OK,65,61,992,65,2014-10-02T07:20:00,0,28224114,190853
OK,76,52,992,76,2014-10-02T07:25:00,3,28224469,190853
OK,68,58,992,68,2014-10-02T07:30:00,0,28224918,190853
OK,76,52,992,76,2014-10-02T07:35:00,5,28225367,190853
OK,76,52,992,76,2014-10-02T07:40:00,1,28225689,190853
OK,70,56,992,70,2014-10-02T07:50:00,5,28226579,190853
OK,70,56,992,70,2014-10-02T07:55:00,4,28227028,190853
OK,85,46,992,85,2014-10-02T08:00:00,1,28227443,190853
OK,82,48,992,82,2014-10-02T08:05:00,2,28227892,190853
OK,74,53,992,74,2014-10-02T08:10:00,0,28228251,190853
OK,72,55,992,72,2014-10-02T08:20:00,0,28229110,190853
OK,84,47,992,84,2014-10-02T08:25:00,5,28229559,190853
OK,93,42,992,93,2014-10-02T08:30:00,0,28229909,190853
OK,79,50,992,79,2014-10-02T08:35:00,5,28230358,190853
OK,79,50,992,79,2014-10-02T08:40:00,2,28230724,190853
OK,79,50,992,79,2014-10-02T08:45:00,0,28231173,190853
OK,80,49,992,80,2014-10-02T08:50:00,2,28231596,190853
OK,81,49,992,81,2014-10-02T08:55:00,0,28232045,190853
OK,71,56,992,71,2014-10-02T09:00:00,2,28232387,190853
OK,68,58,992,68,2014-10-02T09:10:00,0,28232836,190853
OK,70,56,992,70,2014-10-02T09:15:00,3,28233285,190853
OK,69,57,992,69,2014-10-02T09:20:00,1,28233709,190853
OK,69,57,992,69,2014-10-02T09:25:00,0,28234158,190853
OK,69,57,992,69,2014-10-02T09:30:00,0,28234491,190853
OK,83,48,992,83,2014-10-02T09:40:00,1,28235367,190853
OK,85,46,992,85,2014-10-02T09:45:00,4,28235816,190853
OK,86,46,992,86,2014-10-02T09:50:00,0,28236259,190853
OK,67,59,992,67,2014-10-02T09:55:00,1,28236706,190853
OK,67,59,992,67,2014-10-02T10:00:00,0,28237109,190853
OK,67,59,992,67,2014-10-02T10:05:00,0,28237557,190853
OK,67,59,992,67,2014-10-02T10:10:00,0,28238005,190853
OK,67,59,992,67,2014-10-02T10:15:00,0,28238452,190853
OK,67,59,992,67,2014-10-02T10:20:00,0,28238893,190853
OK,67,59,992,67,2014-10-02T10:25:00,0,28239342,190853
OK,67,59,992,67,2014-10-02T10:30:00,0,28239772,190853
OK,83,48,992,83,2014-10-02T10:35:00,0,28240221,190853
OK,73,54,992,73,2014-10-02T10:40:00,2,28240665,190853
OK,75,53,992,75,2014-10-02T10:45:00,3,28241114,190853
OK,77,51,992,77,2014-10-02T10:50:00,0,28241546,190853
OK,80,49,992,80,2014-10-02T10:55:00,2,28241994,190853
OK,76,52,992,76,2014-10-02T11:00:00,0,28242390,190853
OK,76,52,992,76,2014-10-02T11:05:00,0,28242839,190853
OK,79,50,992,79,2014-10-02T11:10:00,3,28243288,190853
OK,80,49,992,80,2014-10-02T11:15:00,3,28243613,190853
OK,103,38,992,103,2014-10-02T11:20:00,3,28244051,190853
OK,104,38,992,104,2014-10-02T11:25:00,2,28244480,190853
OK,104,38,992,104,2014-10-02T11:30:00,0,28244929,190853
OK,73,54,992,73,2014-10-02T11:35:00,2,28245378,190853
OK,73,54,992,73,2014-10-02T11:40:00,0,28245784,190853
OK,73,54,992,73,2014-10-02T11:45:00,0,28246233,190853
OK,86,46,992,86,2014-10-02T11:50:00,5,28246670,190853
OK,87,45,992,87,2014-10-02T11:55:00,6,28247119,190853
OK,75,53,992,75,2014-10-02T12:00:00,4,28247565,190853
OK,75,53,992,75,2014-10-02T12:05:00,3,28247995,190853
OK,75,53,992,75,2014-10-02T12:10:00,0,28248444,190853
OK,79,50,992,79,2014-10-02T12:15:00,2,28248891,190853
OK,83,48,992,83,2014-10-02T12:20:00,0,28249319,190853
OK,83,48,992,83,2014-10-02T12:25:00,8,28249763,190853
OK,75,53,992,75,2014-10-02T12:30:00,4,28250182,190853
OK,75,53,992,75,2014-10-02T12:35:00,4,28250580,190853
OK,81,49,992,81,2014-10-02T13:20:00,3,28251905,190853
OK,80,49,992,80,2014-10-02T13:30:00,8,28252489,190853
OK,80,49,992,80,2014-10-02T13:35:00,4,28252931,190853
OK,81,49,992,81,2014-10-02T13:40:00,0,28253348,190853
OK,74,53,992,74,2014-10-02T13:50:00,5,28254202,190853
OK,79,50,992,79,2014-10-02T13:55:00,5,28254523,190853
OK,80,49,992,80,2014-10-02T14:10:00,4,28255100,190853
OK,84,47,992,84,2014-10-02T14:15:00,3,28255549,190853
OK,89,44,992,89,2014-10-02T14:20:00,2,28255977,190853
OK,95,41,992,95,2014-10-02T14:25:00,1,28256426,190853
OK,73,54,992,73,2014-10-02T14:30:00,1,28256854,190853
OK,86,46,992,86,2014-10-02T14:35:00,2,28257303,190853
OK,79,50,992,79,2014-10-02T14:40:00,3,28257744,190853
OK,75,53,992,75,2014-10-02T14:45:00,1,28258192,190853
OK,77,51,992,77,2014-10-02T14:50:00,2,28258625,190853
OK,73,54,992,73,2014-10-02T14:55:00,3,28259071,190853
OK,76,52,992,76,2014-10-02T15:00:00,4,28259520,190853
OK,78,51,992,78,2014-10-02T15:05:00,6,28259967,190853
OK,81,49,992,81,2014-10-02T15:10:00,10,28260400,190853
OK,79,50,992,79,2014-10-02T15:15:00,8,28260849,190853
OK,71,56,992,71,2014-10-02T15:20:00,2,28261289,190853
OK,81,49,992,81,2014-10-02T15:25:00,2,28261671,190853
OK,95,41,992,95,2014-10-02T15:30:00,1,28262101,190853
OK,100,39,992,100,2014-10-02T15:40:00,1,28262994,190853
OK,78,51,992,78,2014-10-02T15:45:00,1,28263432,190853
OK,78,51,992,78,2014-10-02T15:50:00,0,28263873,190853
OK,78,51,992,78,2014-10-02T15:55:00,0,28264275,190853
OK,77,51,992,77,2014-10-02T16:00:00,3,28264724,190853
OK,77,51,992,77,2014-10-02T16:05:00,1,28265162,190853
OK,70,56,992,70,2014-10-02T16:10:00,1,28265602,190853
OK,70,56,992,70,2014-10-02T16:15:00,1,28265998,190853
OK,85,46,992,85,2014-10-02T16:20:00,4,28266447,190853
OK,78,51,992,78,2014-10-02T16:25:00,1,28266896,190853
OK,78,51,992,78,2014-10-02T16:30:00,0,28267219,190853
OK,78,51,992,78,2014-10-02T16:40:00,0,28268117,190853
OK,63,63,992,63,2014-10-02T16:45:00,1,28268559,190853
OK,63,63,992,63,2014-10-02T16:50:00,1,28269008,190853
OK,73,54,992,73,2014-10-02T16:55:00,2,28269457,190853
OK,77,51,992,77,2014-10-02T17:00:00,0,28269892,190853
OK,80,49,992,80,2014-10-02T17:05:00,1,28270341,190853
OK,80,49,992,80,2014-10-02T17:10:00,1,28270775,190853
OK,80,49,992,80,2014-10-02T17:15:00,0,28271224,190853
OK,75,53,992,75,2014-10-02T17:20:00,1,28271654,190853